Temp
10 9 9 9 9 8 8 8 8 7 7 7 7 6 6 5 5 5 4 4 3 3 3 3 2 2 2 2 2 2 2 2 2 1 1 1 1 0 0 0 0 -0 -0 -0 -0 -0 -0 -1 -1 -1 -1 -1 -1 -1 -1 -1 -1 -1 -1 -1 -1 -2 -2 -2 -2 -2 -2 -3 -3
9 9 9 9 8 8 8 8 7 7 7 6 6 6 5 5 5 4 4 3 3 3 2 2 2 2 2 2 2 2 2 2 2 1 1 1 0 0 0 -0 -0 -0 -0 -0 -1 -1 -1 -1 -1 -1 -1 -1 -1 -1 -1 -1 -1 -1 -1 -2 -2 -2 -2 -2 -2 -3 -3 -3 -3
9 9 9 8 8 8 8 7 7 7 6 6 6 5 5 5 4 4 4 3 3 2 2 2 2 2 2 2 2 2 2 2 1 1 1 0 0 0 -0 -0 -0 -0 -1 -1 -1 -1 -1 -1 -1 -1 -1 -1 -1 -1 -1 -1 -1 -2 -2 -2 -2 -2 -2 -3 -3 -3 -3 -3 -3
9 9 8 8 8 8 8 7 7 6 6 5 5 5 4 4 4 4 3 3 3 2 2 2 2 2 2 2 2 2 2 1 1 1 0 0 0 -0 -0 -0 -0 -1 -1 -1 -1 -1 -1 -1 -1 -1 -1 -1 -1 -1 -2 -2 -2 -2 -2 -2 -3 -3 -3 -3 -3 -3 -3 -3 -3
9 8 8 8 8 7 7 7 6 6 5 4 4 4 4 4 4 4 3 3 3 2 2 2 2 2 2 2 1 1 1 1 1 0 0 -0 -0 -0 -0 -0 -0 -1 -1 -1 -1 -1 -1 -1 -1 -1 -1 -1 -2 -2 -2 -2 -3 -3 -3 -3 -3 -3 -3 -3 -3 -3 -3 -3 -3
8 8 8 7 7 7 7 6 6 5 4 3 3 3 4 4 4 3 3 3 3 3 2 2 2 2 1 1 1 1 1 1 0 0 -0 -0 -0 -0 -0 -1 -1 -1 -1 -1 -1 -1 -1 -1 -2 -2 -2 -2 -2 -2 -2 -3 -3 -3 -3 -3 -3 -3 -3 -3 -3 -3 -3 -3 -3
8 7 7 7 7 6 6 6 5 4 4 3 3 3 3 3 3 3 3 3 3 3 2 2 2 1 1 1 1 1 0 0 0 -0 -0 -1 -1 -1 -1 -1 -1 -1 -1 -1 -1 -1 -1 -2 -2 -2 -2 -2 -2 -2 -2 -2 -3 -3 -3 -3 -3 -3 -3 -3 -3 -3 -4 -4 -4
7 7 7 6 6 6 6 5 5 4 3 3 3 3 3 3 3 3 3 3 3 2 2 2 2 1 1 1 0 0 0 0 -0 -0 -1 -1 -1 -1 -1 -1 -1 -1 -1 -1 -1 -1 -1 -2 -2 -2 -2 -2 -2 -2 -2 -2 -2 -3 -3 -3 -3 -3 -3 -3 -4 -4 -4 -4 -4
7 7 6 6 6 6 5 5 4 4 3 3 3 3 3 3 3 3 3 3 2 2 2 2 2 1 1 1 0 0 -0 -0 -0 -1 -1 -1 -1 -1 -1 -1 -1 -1 -1 -2 -2 -2 -2 -2 -2 -2 -2 -2 -2 -2 -2 -2 -3 -3 -3 -3 -3 -3 -4 -4 -4 -4 -4 -4 -4
7 6 6 6 6 5 4 4 3 3 3 3 3 3 2 2 2 2 2 2 2 2 2 2 2 1 1 0 0 -0 -0 -0 -1 -1 -1 -1 -1 -1 -1 -1 -1 -1 -2 -2 -2 -2 -2 -2 -2 -2 -2 -2 -2 -2 -3 -3 -3 -3 -3 -3 -3 -4 -4 -4 -4 -4 -4 -4 -5
6 6 6 6 5 4 4 3 3 3 3 3 2 2 2 2 2 2 2 2 2 2 2 2 1 1 1 0 0 -0 -0 -0 -1 -1 -1 -1 -1 -1 -1 -1 -1 -2 -2 -2 -1 -2 -2 -2 -2 -2 -2 -2 -2 -2 -3 -3 -3 -3 -4 -4 -4 -4 -4 -4 -4 -4 -5 -5 -5
6 6 6 5 4 4 3 3 3 3 3 2 2 2 2 2 2 2 2 2 1 1 1 1 1 1 1 0 -0 -0 -0 -1 -1 -1 -1 -1 -1 -1 -1 -1 -2 -2 -2 -1 -2 -2 -2 -2 -2 -2 -2 -2 -3 -3 -3 -3 -3 -4 -4 -4 -4 -4 -4 -4 -4 -5 -5 -5 -5
6 5 5 5 4 3 3 3 3 3 3 2 2 2 2 2 2 2 2 1 1 1 1 1 1 1 0 0 -0 -0 -0 -1 -1 -1 -1 -1 -1 -1 -1 -2 -2 -2 -2 -2 -2 -2 -2 -2 -2 -2 -2 -3 -3 -3 -3 -4 -4 -4 -4 -4 -4 -4 -4 -4 -4 -5 -5 -5 -5
5 5 5 4 4 3 3 3 3 3 3 2 2 2 2 2 2 2 2 1 1 1 1 1 1 1 0 0 -0 -0 -0 -1 -1 -1 -1 -1 -1 -1 -2 -2 -2 -2 -2 -2 -2 -2 -2 -2 -2 -2 -3 -3 -3 -3 -3 -4 -4 -4 -4 -4 -4 -4 -4 -4 -5 -5 -5 -5 -5
5 5 4 4 4 3 3 3 3 3 3 2 2 2 2 1 1 1 1 1 1 1 1 1 1 1 0 0 -0 -0 -0 -1 -1 -1 -1 -1 -1 -2 -2 -2 -2 -2 -2 -2 -2 -2 -2 -2 -2 -3 -3 -3 -3 -3 -4 -4 -4 -4 -4 -4 -4 -4 -4 -5 -5 -5 -5 -5 -6
5 4 4 4 3 3 3 3 3 3 3 2 2 2 1 1 1 1 1 1 1 1 1 1 1 0 0 -0 -0 -0 -1 -1 -1 -1 -1 -2 -2 -2 -2 -2 -2 -2 -2 -2 -2 -2 -2 -2 -3 -3 -3 -3 -3 -4 -4 -4 -4 -4 -4 -4 -4 -4 -5 -5 -5 -5 -5 -5 -6
4 4 4 3 3 3 3 3 3 3 2 2 2 1 1 1 1 1 1 1 1 1 1 1 0 0 -0 -0 -1 -1 -1 -1 -1 -1 -2 -2 -2 -2 -2 -2 -2 -2 -2 -2 -2 -2 -3 -3 -3 -3 -3 -3 -3 -4 -4 -4 -4 -4 -4 -4 -4 -5 -5 -5 -5 -5 -5 -5 -6
4 4 3 3 3 3 3 3 2 2 2 2 1 1 1 1 1 1 1 1 1 1 0 0 0 -0 -0 -1 -1 -1 -1 -1 -1 -2 -2 -2 -2 -2 -2 -2 -2 -2 -2 -3 -3 -3 -3 -3 -3 -3 -3 -3 -4 -4 -4 -4 -4 -4 -4 -4 -4 -5 -5 -5 -5 -5 -5 -5 -6
4 3 3 3 3 3 3 2 2 2 2 2 1 1 1 1 1 1 1 1 1 0 0 0 -0 -0 -0 -1 -1 -1 -1 -1 -2 -2 -2 -2 -2 -2 -2 -2 -2 -2 -3 -3 -3 -3 -3 -3 -3 -3 -3 -4 -4 -4 -4 -4 -4 -4 -4 -4 -4 -5 -5 -5 -5 -5 -5 -6 -6
4 3 3 3 3 3 3 2 2 2 2 1 1 1 1 1 1 1 1 1 0 0 0 -0 -0 -0 -1 -1 -1 -1 -1 -1 -2 -2 -2 -2 -2 -2 -2 -3 -3 -3 -3 -3 -3 -3 -3 -3 -3 -3 -3 -4 -4 -4 -4 -4 -4 -4 -4 -4 -5 -5 -5 -5 -5 -6 -6 -6 -6
3 3 3 3 3 3 2 2 2 2 2 1 1 1 1 1 1 0 0 0 0 0 -0 -0 -0 -1 -1 -1 -1 -1 -1 -1 -2 -2 -2 -2 -2 -2 -2 -3 -3 -3 -3 -3 -3 -3 -3 -3 -3 -3 -3 -4 -4 -4 -4 -4 -4 -4 -4 -4 -5 -5 -5 -5 -6 -6 -6 -6 -7
3 3 3 3 3 3 2 2 2 2 2 1 1 1 1 0 0 0 0 0 0 0 -0 -0 -0 -1 -1 -1 -1 -1 -1 -1 -2 -2 -2 -2 -2 -2 -2 -3 -3 -3 -3 -3 -3 -3 -3 -3 -3 -3 -3 -3 -4 -4 -4 -4 -4 -4 -4 -5 -5 -5 -5 -6 -6 -6 -6 -7 -7
3 3 3 3 3 3 3 2 2 2 1 1 1 0 0 0 0 0 0 0 0 0 -0 -0 -0 -1 -1 -1 -1 -1 -1 -1 -2 -2 -2 -2 -2 -2 -2 -3 -3 -3 -3 -3 -3 -3 -3 -3 -3 -3 -3 -3 -4 -4 -4 -4 -4 -4 -5 -5 -5 -5 -5 -6 -6 -6 -6 -7 -7
3 3 3 3 3 3 3 2 2 2 1 1 0 0 0 0 0 0 0 0 0 0 -0 -0 -0 -0 -1 -1 -1 -1 -1 -2 -2 -2 -2 -2 -2 -2 -2 -2 -3 -3 -3 -3 -3 -3 -3 -3 -3 -3 -3 -4 -4 -4 -4 -4 -4 -5 -5 -5 -5 -5 -5 -6 -6 -6 -7 -7 -7
3 3 3 3 3 3 2 2 2 1 1 1 0 0 0 0 1 1 0 0 0 0 -0 -0 -0 -0 -1 -1 -1 -1 -1 -2 -2 -2 -2 -2 -2 -2 -2 -2 -3 -3 -3 -3 -3 -3 -3 -3 -3 -3 -4 -4 -4 -4 -4 -4 -5 -5 -5 -5 -5 -5 -6 -6 -6 -6 -7 -7 -8
3 3 3 3 3 3 2 2 1 1 1 0 0 1 1 1 1 1 1 0 0 0 0 -0 -0 -0 -1 -1 -1 -1 -2 -2 -2 -2 -2 -2 -2 -2 -2 -2 -3 -3 -3 -3 -3 -3 -3 -3 -3 -4 -4 -4 -4 -4 -4 -5 -5 -5 -5 -5 -5 -5 -6 -6 -6 -6 -7 -7 -8
3 3 3 3 3 2 2 1 1 1 1 1 1 1 1 1 1 1 1 0 0 0 0 0 -0 -0 -1 -1 -1 -1 -2 -2 -2 -2 -2 -2 -2 -2 -2 -2 -2 -3 -3 -3 -3 -3 -3 -3 -4 -4 -4 -4 -4 -4 -5 -5 -5 -5 -5 -5 -5 -6 -6 -6 -6 -6 -7 -8 -8
3 3 3 3 3 2 2 1 1 1 1 1 1 1 1 1 1 1 1 1 1 0 0 -0 -0 -0 -1 -1 -1 -1 -2 -2 -2 -2 -2 -2 -2 -2 -2 -2 -2 -3 -3 -3 -3 -3 -3 -4 -4 -4 -4 -4 -4 -5 -5 -5 -5 -5 -5 -5 -5 -6 -6 -6 -6 -7 -7 -8 -8
3 3 3 3 2 2 1 1 1 1 1 1 1 1 1 1 1 1 1 1 1 0 0 -0 -0 -0 -1 -1 -1 -1 -1 -2 -2 -2 -2 -2 -2 -2 -2 -2 -3 -3 -3 -3 -3 -3 -4 -4 -4 -4 -4 -4 -5 -5 -5 -5 -5 -5 -5 -5 -6 -6 -6 -6 -6 -7 -7 -7 -8
3 3 3 2 2 2 1 1 1 1 1 1 1 1 1 1 1 1 1 1 0 0 0 -0 -0 -1 -1 -1 -1 -1 -1 -2 -2 -2 -2 -2 -2 -2 -2 -3 -3 -3 -3 -3 -3 -3 -4 -4 -4 -4 -4 -5 -5 -5 -5 -5 -5 -5 -5 -6 -6 -6 -6 -6 -6 -7 -7 -7 -8
3 3 3 2 2 1 1 1 1 1 1 1 1 1 1 1 1 1 1 1 0 0 -0 -0 -0 -1 -1 -1 -1 -1 -1 -2 -2 -2 -2 -2 -2 -2 -3 -3 -3 -3 -3 -3 -3 -3 -4 -4 -4 -4 -4 -5 -5 -5 -5 -5 -5 -5 -5 -6 -6 -6 -6 -6 -6 -7 -7 -7 -8
3 3 2 2 2 1 1 1 1 1 1 1 1 1 1 1 1 1 1 0 0 -0 -0 -0 -1 -1 -1 -1 -1 -1 -1 -2 -2 -2 -2 -2 -2 -2 -3 -3 -3 -3 -3 -3 -3 -3 -4 -4 -4 -4 -5 -5 -5 -5 -5 -5 -5 -5 -6 -6 -6 -6 -6 -6 -7 -7 -7 -7 -8
3 2 2 2 1 1 1 1 1 1 1 1 1 1 1 1 1 1 0 0 -0 -0 -0 -0 -1 -1 -1 -1 -1 -1 -1 -2 -2 -2 -2 -2 -2 -2 -3 -3 -3 -3 -3 -3 -3 -3 -4 -4 -4 -4 -5 -5 -5 -5 -5 -5 -6 -6 -6 -6 -6 -6 -6 -6 -7 -7 -7 -7 -8
3 2 2 1 1 1 1 1 1 1 2 2 1 1 1 1 1 1 0 0 -0 -0 -0 -1 -1 -1 -1 -1 -1 -1 -1 -2 -2 -2 -2 -2 -2 -3 -3 -3 -3 -3 -3 -3 -3 -4 -4 -4 -4 -4 -5 -5 -5 -5 -5 -6 -6 -6 -6 -6 -6 -6 -6 -6 -7 -7 -7 -7 -8
2 2 1 1 1 1 1 1 1 2 2 1 1 1 1 1 1 0 0 0 -0 -0 -0 -1 -1 -1 -1 -1 -1 -1 -1 -2 -2 -2 -2 -2 -2 -3 -3 -3 -3 -3 -3 -3 -4 -4 -4 -4 -4 -5 -5 -5 -5 -5 -6 -6 -6 -6 -6 -6 -6 -6 -6 -6 -7 -7 -7 -7 -7
2 2 1 1 1 1 1 2 2 1 1 1 1 1 1 1 1 0 0 -0 -0 -0 -0 -1 -1 -1 -1 -1 -1 -1 -2 -2 -2 -2 -2 -2 -3 -3 -3 -3 -3 -3 -4 -4 -4 -4 -4 -4 -5 -5 -5 -5 -5 -6 -6 -6 -6 -6 -6 -6 -6 -6 -6 -6 -7 -7 -7 -7 -7
2 1 1 1 1 2 2 2 1 1 1 1 1 1 1 1 0 0 0 -0 -0 -0 -0 -0 -1 -1 -1 -1 -1 -1 -2 -2 -2 -2 -2 -2 -3 -3 -3 -3 -4 -4 -4 -4 -4 -4 -4 -4 -5 -5 -5 -5 -5 -6 -6 -6 -6 -6 -6 -6 -6 -6 -6 -6 -7 -7 -7 -7 -7
1 1 1 1 2 2 2 1 1 1 1 1 1 1 1 1 0 0 0 -0 -0 -0 -0 -1 -1 -1 -1 -1 -1 -2 -2 -2 -2 -2 -2 -2 -3 -3 -3 -3 -4 -4 -4 -4 -4 -4 -4 -5 -5 -5 -5 -5 -6 -6 -6 -6 -6 -6 -6 -6 -6 -6 -6 -7 -7 -7 -7 -7 -7
1 1 1 1 1 2 1 1 1 1 1 1 1 1 1 0 0 0 0 -0 -0 -0 -0 -1 -1 -1 -1 -1 -1 -2 -2 -2 -2 -2 -2 -3 -3 -3 -3 -3 -4 -4 -4 -4 -4 -4 -4 -5 -5 -5 -5 -5 -6 -6 -6 -6 -6 -6 -6 -6 -6 -6 -6 -7 -7 -7 -7 -7 -7
1 1 1 1 1 1 1 1 2 2 1 1 1 0 0 0 0 0 -0 -0 -0 -0 -1 -1 -1 -1 -1 -1 -1 -2 -2 -2 -2 -2 -2 -3 -3 -3 -3 -3 -4 -4 -4 -4 -4 -4 -5 -5 -5 -5 -5 -5 -6 -6 -6 -6 -6 -6 -6 -6 -7 -7 -7 -7 -7 -7 -7 -7 -7
1 1 1 1 1 1 1 1 1 1 1 1 1 0 0 0 0 0 -0 -0 -0 -1 -1 -1 -1 -1 -1 -1 -2 -2 -2 -2 -2 -2 -2 -3 -3 -3 -3 -3 -4 -4 -4 -4 -4 -4 -5 -5 -5 -5 -5 -5 -6 -6 -6 -6 -6 -6 -7 -7 -7 -7 -7 -7 -7 -7 -7 -7 -7
Height
1548 1548 1549 1549 1549 1549 1549 1549 1549 1549 1549 1549 1549 1549 1550 1550 1549 1549 1549 1549 1549 1549 1548 1548 1547 1547 1546 1546 1546 1546 1546 1545 1545 1545 1544 1544 1544 1543 1543 1542 1541 1541 1540 1540 1539 1539 1538 1537 1537 1536 1536 1536 1536 1536 1536 1536 1535 1535 1535 1534 1534 1533 1532 1531 1531 1530 1529 1529 1528
1547 1547 1547 1548 1548 1548 1548 1548 1548 1548 1548 1548 1548 1548 1549 1549 1548 1548 1548 1548 1548 1548 1548 1547 1546 1546 1546 1545 1545 1545 1545 1544 1544 1544 1543 1543 1543 1543 1542 1541 1541 1540 1540 1539 1539 1538 1537 1537 1536 1536 1536 1536 1536 1535 1535 1535 1535 1534 1534 1533 1533 1532 1531 1531 1530 1529 1529 1528 1528
1546 1546 1546 1547 1547 1547 1547 1547 1547 1547 1547 1547 1547 1547 1548 1548 1547 1547 1547 1547 1547 1547 1547 1546 1546 1545 1545 1544 1544 1544 1544 1543 1543 1543 1543 1542 1542 1542 1542 1541 1541 1540 1539 1539 1538 1537 1537 1536 1536 1536 1535 1535 1535 1535 1534 1534 1534 1533 1533 1532 1531 1531 1531 1530 1529 1529 1528 1527 1527
1545 1545 1546 1546 1546 1546 1546 1546 1546 1546 1546 1546 1546 1546 1546 1546 1546 1547 1546 1546 1546 1546 1546 1546 1545 1545 1544 1544 1543 1543 1543 1543 1542 1542 1542 1542 1541 1541 1541 1540 1540 1539 1539 1538 1537 1536 1536 1536 1535 1535 1535 1534 1534 1534 1534 1533 1532 1532 1531 1531 1531 1530 1530 1529 1529 1528 1527 1527 1526
1544 1544 1545 1545 1545 1545 1545 1545 1545 1545 1545 1545 1545 1545 1546 1546 1546 1546 1546 1546 1545 1545 1545 1545 1544 1544 1544 1543 1543 1542 1542 1542 1542 1541 1541 1541 1541 1541 1540 1540 1539 1539 1538 1537 1537 1536 1535 1535 1534 1534 1534 1534 1533 1533 1533 1532 1532 1531 1531 1530 1530 1529 1529 1528 1528 1527 1527 1526 1525
1543 1543 1543 1543 1544 1544 1544 1544 1544 1544 1544 1544 1544 1545 1545 1545 1545 1545 1545 1545 1545 1544 1544 1544 1544 1543 1543 1542 1542 1542 1541 1541 1541 1541 1540 1540 1540 1540 1539 1539 1538 1538 1537 1537 1536 1536 1535 1534 1534 1533 1533 1533 1533 1532 1532 1531 1531 1531 1530 1530 1529 1529 1528 1528 1527 1526 1526 1525 1524
1542 1542 1542 1542 1542 1543 1543 1543 1543 1543 1543 1544 1544 1544 1544 1544 1544 1544 1544 1544 1544 1544 1543 1543 1543 1542 1542 1542 1541 1541 1541 1541 1541 1540 1540 1539 1539 1539 1538 1538 1538 1537 1536 1536 1536 1535 1535 1534 1533 1533 1533 1533 1532 1532 1531 1531 1531 1530 1530 1529 1528 1528 1527 1527 1526 1525 1525 1524 1523
1541 1541 1541 1541 1542 1542 1542 1542 1542 1543 1543 1543 1543 1543 1543 1544 1544 1544 1544 1543 1543 1543 1542 1542 1542 1541 1541 1541 1541 1541 1541 1540 1540 1539 1539 1539 1538 1538 1538 1537 1537 1536 1536 1536 1535 1534 1534 1533 1533 1533 1532 1532 1532 1531 1531 1530 1530 1529 1528 1528 1527 1527 1526 1526 1525 1524 1523 1522 1521
1540 1540 1541 1541 1541 1541 1541 1541 1542 1542 1542 1542 1543 1543 1543 1543 1543 1543 1543 1542 1542 1542 1541 1541 1541 1541 1540 1540 1540 1540 1540 1540 1539 1539 1538 1538 1538 1537 1537 1537 1536 1536 1536 1535 1534 1534 1533 1533 1532 1532 1532 1531 1531 1531 1530 1529 1528 1528 1527 1526 1526 1525 1525 1524 1523 1522 1522 1521 1520
1539 1539 1540 1540 1540 1540 1540 1541 1541 1541 1542 1542 1542 1542 1542 1542 1542 1542 1542 1541 1541 1541 1541 1540 1540 1540 1540 1539 1539 1539 1539 1539 1539 1538 1538 1537 1537 1536 1536 1536 1536 1535 1535 1534 1534 1533 1532 1532 1532 1531 1531 1531 1530 1530 1529 1528 1527 1526 1526 1525 1525 1524 1523 1523 1522 1521 1521 1520 1519
1538 1538 1539 1539 1539 1539 1540 1540 1541 1541 1541 1542 1542 1542 1542 1542 1541 1541 1541 1541 1540 1540 1540 1540 1539 1539 1539 1539 1538 1538 1538 1538 1537 1537 1536 1536 1536 1536 1535 1535 1535 1535 1534 1534 1533 1532 1532 1531 1531 1531 1531 1530 1530 1529 1528 1527 1526 1525 1525 1524 1523 1523 1522 1521 1521 1520 1519 1518 1517
1537 1537 1538 1538 1538 1539 1539 1540 1540 1541 1541 1541 1541 1541 1541 1541 1541 1541 1540 1540 1540 1539 1539 1539 1538 1538 1538 1538 1537 1537 1537 1537 1536 1536 1536 1535 1535 1535 1534 1534 1534 1534 1533 1533 1532 1531 1531 1531 1530 1530 1529 1529 1529 1528 1527 1526 1525 1524 1523 1523 1522 1521 1521 1520 1520 1519 1518 1517 1516
1536 1536 1537 1537 1538 1539 1539 1540 1540 1541 1541 1541 1541 1541 1541 1541 1541 1540 1540 1539 1539 1538 1538 1538 1537 1537 1537 1537 1536 1536 1536 1536 1535 1535 1535 1534 1534 1534 1533 1533 1533 1532 1532 1531 1531 1530 1530 1529 1529 1529 1528 1528 1527 1526 1526 1525 1524 1523 1522 1521 1521 1521 1520 1519 1518 1517 1516 1515 1514
1536 1536 1536 1537 1538 1538 1539 1540 1540 1540 1541 1541 1541 1541 1541 1541 1540 1540 1539 1539 1538 1538 1537 1537 1537 1536 1536 1536 1536 1535 1535 1535 1534 1534 1534 1533 1533 1532 1532 1532 1531 1531 1531 1530 1530 1529 1529 1528 1528 1528 1527 1527 1526 1525 1525 1524 1523 1522 1521 1521 1520 1519 1519 1518 1517 1516 1515 1513 1512
1535 1535 1536 1536 1537 1538 1538 1539 1539 1540 1540 1540 1540 1540 1540 1540 1540 1539 1538 1538 1538 1537 1537 1537 1536 1536 1535 1535 1535 1534 1534 1533 1533 1533 1532 1532 1531 1531 1531 1531 1530 1530 1530 1529 1529 1528 1528 1527 1527 1526 1526 1526 1525 1524 1523 1523 1522 1521 1520 1520 1519 1519 1518 1517 1516 1514 1513 1511 1510
1534 1535 1535 1536 1536 1537 1538 1538 1539 1539 1539 1539 1539 1539 1539 1539 1539 1538 1538 1537 1537 1537 1537 1536 1536 1535 1535 1534 1534 1533 1533 1532 1532 1531 1531 1531 1530 1530 1530 1529 1529 1529 1528 1528 1527 1527 1527 1526 1526 1526 1525 1525 1524 1523 1522 1521 1521 1520 1519 1519 1518 1518 1516 1515 1514 1513 1511 1510 1509
1534 1534 1535 1535 1536 1536 1537 1537 1538 1538 1538 1539 1539 1538 1538 1538 1538 1538 1537 1537 1537 1536 1536 1536 1535 1535 1534 1533 1533 1532 1532 1531 1531 1531 1530 1530 1529 1529 1528 1528 1528 1527 1527 1527 1526 1526 1526 1526 1525 1525 1524 1523 1523 1522 1521 1520 1520 1519 1519 1518 1517 1516 1516 1514 1513 1511 1510 1509 1507
1533 1534 1534 1535 1535 1536 1536 1537 1537 1537 1537 1537 1537 1538 1538 1538 1537 1537 1537 1536 1536 1536 1536 1535 1535 1534 1533 1533 1532 1532 1531 1531 1530 1530 1529 1529 1528 1528 1527 1527 1526 1526 1526 1526 1525 1525 1525 1525 1524 1523 1523 1522 1522 1521 1520 1519 1519 1518 1518 1517 1516 1516 1514 1513 1511 1510 1509 1507 1506
1532 1533 1534 1534 1535 1535 1536 1536 1536 1536 1536 1536 1537 1537 1537 1537 1537 1537 1536 1536 1536 1535 1534 1534 1534 1533 1533 1532 1531 1531 1531 1530 1529 1529 1528 1528 1527 1527 1526 1526 1525 1525 1525 1524 1524 1524 1524 1524 1523 1522 1522 1521 1521 1520 1519 1518 1518 1517 1517 1516 1515 1514 1513 1511 1510 1509 1508 1506 1506
1532 1532 1533 1534 1534 1535 1535 1535 1535 1535 1536 1536 1536 1536 1536 1536 1536 1536 1536 1535 1535 1534 1533 1533 1532 1532 1532 1531 1531 1530 1530 1529 1528 1528 1527 1527 1526 1526 1525 1525 1524 1524 1524 1523 1523 1523 1523 1522 1522 1521 1521 1520 1520 1519 1518 1518 1517 1516 1516 1515 1514 1513 1512 1510 1509 1508 1506 1506 1505
1531 1532 1532 1533 1534 1534 1534 1534 1534 1534 1535 1535 1535 1536 1536 1536 1535 1535 1535 1534 1534 1533 1532 1532 1531 1531 1531 1530 1530 1529 1529 1528 1528 1527 1526 1526 1526 1525 1524 1524 1523 1523 1523 1522 1522 1522 1522 1521 1521 1521 1520 1520 1519 1518 1517 1517 1516 1515 1515 1514 1513 1512 1511 1509 1508 1507 1506 1505 1504
1531 1531 1532 1532 1533 1533 1533 1533 1533 1534 1534 1534 1534 1534 1534 1534 1534 1534 1533 1533 1532 1532 1531 1531 1530 1530 1530 1529 1529 1528 1528 1527 1527 1526 1526 1525 1525 1524 1523 1523 1522 1522 1522 1521 1521 1521 1521 1521 1520 1520 1519 1519 1518 1517 1516 1516 1515 1514 1513 1512 1511 1511 1509 1508 1507 1506 1505 1503 1503
1530 1530 1531 1531 1531 1531 1532 1532 1532 1532 1533 1533 1533 1532 1532 1532 1532 1532 1532 1532 1531 1531 1531 1530 1529 1529 1529 1528 1528 1527 1527 1526 1526 1525 1525 1524 1524 1523 1522 1522 1521 1521 1521 1520 1520 1520 1520 1520 1519 1519 1518 1518 1517 1516 1515 1515 1514 1513 1512 1511 1510 1509 1508 1507 1506 1504 1503 1502 1501
1529 1529 1529 1529 1530 1530 1531 1531 1531 1531 1531 1531 1531 1531 1531 1531 1531 1531 1531 1531 1531 1530 1530 1529 1529 1528 1528 1527 1527 1526 1526 1525 1525 1524 1524 1523 1523 1522 1522 1521 1521 1520 1519 1519 1519 1519 1519 1518 1518 1518 1517 1516 1516 1515 1514 1513 1512 1511 1511 1510 1508 1507 1506 1505 1504 1503 1502 1501 1500
1527 1527 1527 1528 1529 1529 1530 1530 1530 1530 1529 1529 1529 1529 1530 1530 1530 1530 1530 1530 1529 1529 1528 1528 1528 1527 1527 1526 1526 1525 1525 1524 1523 1523 1523 1522 1522 1521 1521 1520 1519 1519 1518 1518 1518 1518 1517 1517 1517 1516 1516 1515 1515 1514 1513 1512 1511 1510 1509 1508 1507 1506 1505 1504 1503 1502 1501 1500 1499
1526 1526 1526 1527 1528 1528 1528 1528 1528 1528 1528 1528 1528 1529 1529 1529 1529 1529 1529 1528 1528 1528 1528 1527 1527 1526 1526 1525 1525 1524 1523 1523 1522 1522 1522 1521 1521 1520 1520 1519 1518 1517 1517 1517 1517 1516 1516 1516 1516 1515 1514 1514 1513 1512 1511 1511 1510 1509 1508 1507 1506 1505 1503 1502 1501 1500 1499 1499 1498
1525 1525 1526 1526 1527 1527 1527 1527 1526 1526 1526 1527 1528 1528 1528 1528 1528 1528 1527 1527 1527 1527 1527 1526 1526 1526 1525 1524 1523 1523 1522 1522 1521 1521 1521 1520 1520 1519 1519 1518 1517 1516 1516 1516 1516 1515 1515 1515 1514 1514 1513 1512 1512 1511 1510 1509 1508 1507 1506 1506 1504 1503 1502 1501 1500 1499 1498 1497 1496
1524 1525 1525 1526 1526 1526 1526 1526 1526 1526 1526 1527 1527 1527 1527 1527 1526 1526 1526 1526 1526 1526 1526 1525 1525 1524 1523 1523 1522 1522 1521 1521 1521 1520 1520 1519 1519 1518 1517 1516 1515 1515 1515 1514 1514 1514 1514 1513 1513 1512 1511 1511 1510 1510 1509 1508 1507 1506 1505 1504 1503 1502 1501 1500 1498 1497 1496 1496 1495
1523 1524 1524 1524 1524 1524 1524 1525 1525 1525 1526 1526 1527 1526 1526 1525 1525 1525 1525 1525 1525 1525 1524 1524 1523 1523 1522 1521 1521 1521 1520 1520 1520 1519 1519 1518 1518 1517 1516 1515 1514 1513 1513 1513 1513 1513 1512 1512 1511 1511 1510 1510 1509 1508 1507 1506 1506 1505 1504 1503 1502 1501 1500 1498 1497 1496 1495 1495 1494
1522 1522 1523 1523 1523 1523 1524 1524 1524 1525 1525 1526 1526 1525 1524 1524 1524 1524 1524 1524 1523 1523 1522 1522 1521 1521 1521 1520 1520 1520 1519 1519 1518 1518 1517 1517 1516 1515 1514 1513 1513 1512 1512 1512 1511 1511 1511 1511 1510 1509 1509 1508 1507 1507 1506 1505 1504 1503 1502 1501 1501 1500 1498 1497 1496 1495 1494 1493 1492
1521 1521 1521 1522 1522 1522 1523 1523 1523 1524 1524 1524 1524 1523 1523 1523 1523 1522 1522 1522 1522 1521 1521 1521 1520 1519 1519 1519 1519 1518 1518 1517 1517 1517 1516 1516 1515 1514 1513 1512 1511 1511 1511 1511 1510 1510 1510 1509 1509 1508 1507 1507 1506 1506 1505 1504 1503 1502 1501 1500 1499 1498 1497 1496 1495 1494 1493 1492 1491
1520 1520 1520 1521 1521 1521 1522 1522 1522 1522 1522 1522 1522 1521 1521 1521 1521 1521 1521 1520 1520 1520 1519 1519 1518 1518 1518 1517 1517 1517 1516 1516 1516 1515 1515 1514 1514 1513 1512 1511 1510 1510 1509 1509 1509 1509 1508 1508 1507 1507 1506 1506 1505 1504 1503 1503 1502 1501 1500 1499 1498 1497 1496 1495 1494 1493 1492 1491 1490
1519 1519 1519 1520 1520 1520 1520 1521 1521 1521 1521 1521 1520 1520 1520 1519 1519 1519 1519 1519 1518 1518 1517 1517 1517 1516 1516 1516 1516 1515 1515 1515 1514 1514 1513 1513 1512 1511 1511 1510 1509 1508 1508 1508 1508 1507 1507 1506 1506 1506 1505 1504 1504 1503 1502 1501 1501 1500 1499 1498 1497 1496 1495 1494 1493 1492 1491 1490 1489
1517 1518 1518 1518 1518 1518 1519 1519 1520 1520 1520 1520 1519 1518 1518 1518 1518 1517 1517 1517 1517 1516 1516 1516 1515 1515 1515 1514 1514 1514 1513 1513 1513 1512 1512 1511 1511 1510 1509 1508 1507 1507 1507 1507 1506 1506 1506 1505 1505 1504 1504 1503 1503 1502 1501 1500 1499 1498 1497 1497 1496 1495 1494 1493 1492 1491 1490 1489 1488
1516 1516 1517 1517 1517 1517 1517 1518 1519 1519 1519 1518 1518 1517 1517 1517 1516 1516 1516 1516 1515 1515 1514 1514 1514 1513 1513 1513 1512 1512 1512 1511 1511 1511 1510 1510 1509 1508 1507 1507 1506 1506 1506 1506 1505 1505 1505 1504 1503 1503 1502 1502 1501 1501 1500 1499 1498 1497 1496 1496 1495 1494 1493 1492 1491 1490 1489 1488 1486
1515 1515 1515 1515 1516 1516 1517 1517 1517 1517 1517 1517 1516 1516 1516 1515 1515 1515 1514 1514 1514 1513 1513 1512 1512 1512 1511 1511 1511 1511 1510 1510 1509 1509 1508 1508 1507 1507 1506 1505 1505 1504 1504 1504 1504 1503 1503 1502 1502 1502 1501 1501 1501 1500 1499 1498 1497 1496 1495 1495 1494 1493 1492 1491 1490 1489 1488 1486 1486
1513 1513 1514 1514 1515 1515 1516 1516 1516 1516 1515 1515 1515 1515 1514 1514 1514 1513 1513 1513 1512 1512 1511 1511 1511 1510 1510 1510 1509 1509 1509 1508 1508 1507 1507 1506 1506 1505 1504 1504 1503 1503 1502 1502 1502 1502 1501 1501 1501 1501 1500 1500 1499 1498 1497 1496 1496 1495 1494 1493 1493 1492 1491 1490 1489 1488 1486 1486 1485
1512 1512 1513 1513 1514 1514 1514 1513 1514 1514 1514 1514 1514 1513 1513 1512 1512 1512 1511 1511 1511 1510 1510 1510 1509 1509 1508 1508 1508 1507 1507 1507 1506 1506 1505 1505 1504 1504 1503 1502 1502 1501 1501 1501 1501 1500 1500 1500 1500 1499 1499 1498 1498 1497 1496 1496 1495 1494 1493 1492 1491 1491 1490 1489 1488 1486 1486 1485 1484
1511 1511 1511 1512 1512 1512 1512 1512 1512 1513 1513 1512 1512 1512 1511 1511 1511 1511 1510 1510 1509 1509 1508 1508 1507 1507 1507 1506 1506 1506 1506 1506 1505 1505 1504 1503 1503 1502 1502 1501 1500 1500 1500 1500 1499 1499 1499 1499 1498 1498 1497 1497 1496 1496 1495 1494 1494 1493 1492 1491 1490 1490 1489 1488 1487 1486 1485 1484 1483
1510 1510 1510 1510 1511 1511 1511 1511 1511 1511 1511 1511 1511 1510 1510 1510 1509 1509 1508 1508 1508 1507 1507 1506 1506 1506 1506 1505 1505 1504 1504 1504 1504 1503 1503 1502 1502 1501 1501 1500 1499 1499 1498 1498 1498 1498 1497 1497 1497 1496 1496 1496 1495 1494 1494 1493 1492 1492 1491 1490 1489 1488 1487 1487 1486 1485 1484 1483 1482
1508 1509 1509 1509 1510 1510 1510 1510 1510 1510 1510 1509 1509 1509 1508 1508 1508 1507 1507 1506 1506 1506 1505 1505 1505 1504 1504 1504 1503 1503 1502 1502 1502 1502 1501 1501 1500 1500 1499 1499 1498 1498 1497 1497 1496 1496 1496 1496 1496 1495 1495 1494 1494 1493 1492 1492 1491 1491 1490 1489 1488 1487 1486 1486 1485 1484 1483 1482 1481
Wind_Speed
8 7 6 5 4 5 5 6 7 8 9 9 9 9 9 8 8 8 8 7 7 7 8 8 9 9 10 11 12 12 12 12 11 9 8 7 7 7 8 9 9 10 11 11 12 13 13 13 13 13 12 12 11 12 13 13 15 15 16 16 17 17 18 18 17 16 16 15 15
8 7 6 6 5 5 6 7 7 8 8 9 9 9 9 8 7 7 7 7 7 7 8 8 9 10 10 11 12 12 12 12 11 9 8 7 8 8 9 9 10 10 11 11 12 12 12 12 12 12 12 11 11 12 12 13 14 15 15 15 16 16 16 16 16 16 15 15 15
8 7 7 7 6 6 6 7 8 8 9 9 9 9 8 7 7 7 7 7 7 8 8 9 9 10 11 12 12 13 12 12 11 10 9 8 9 9 10 10 11 11 11 11 11 12 12 12 12 12 12 12 12 12 12 13 13 14 14 14 15 15 14 14 14 14 14 14 14
8 7 7 7 7 6 6 7 8 8 9 9 9 8 8 7 6 6 6 7 8 8 9 9 10 11 11 12 12 12 12 11 11 10 9 9 10 10 11 12 12 12 12 12 11 11 12 12 12 12 12 12 12 11 11 11 11 11 12 12 13 13 12 12 13 14 14 15 15
8 7 7 6 6 6 6 6 7 8 8 8 8 8 8 7 6 5 6 6 7 8 9 10 10 11 11 12 12 12 12 12 11 11 10 10 11 11 12 13 13 13 13 12 11 11 11 12 12 12 11 11 10 9 8 8 8 8 9 10 10 11 11 12 14 15 15 16 17
8 7 7 6 5 5 6 6 7 8 9 9 9 9 9 8 6 6 6 6 7 7 8 9 10 10 10 10 11 11 12 12 12 11 11 11 11 12 13 13 13 13 12 11 10 9 10 11 11 10 9 8 7 6 7 7 8 8 9 10 11 13 14 14 15 16 18 19 19
8 7 6 5 5 5 6 6 7 9 10 10 10 11 10 8 7 6 6 6 6 6 6 7 8 8 9 9 10 11 11 12 11 10 10 11 11 12 13 13 13 12 11 10 8 8 8 9 9 8 6 5 5 6 8 9 10 11 13 14 15 16 17 17 18 19 20 20 21
8 7 6 5 5 6 6 7 8 9 10 11 11 11 10 8 7 7 7 7 6 6 6 6 6 7 8 9 10 11 11 11 10 9 10 10 11 12 13 13 12 11 10 9 8 8 9 9 9 8 8 8 8 9 10 12 13 14 15 16 17 17 18 19 20 20 20 21 21
8 7 6 6 5 5 6 6 7 9 10 10 11 10 9 8 7 7 7 7 7 7 7 7 7 7 8 9 10 10 10 9 9 9 10 11 11 12 13 13 12 10 9 8 9 9 10 10 10 10 11 11 12 12 13 15 15 16 17 18 18 19 19 20 20 20 20 20 21
8 7 6 5 5 5 5 6 7 7 8 9 9 9 8 8 7 7 8 8 8 8 9 9 9 8 8 9 10 9 9 8 8 9 10 11 12 13 13 12 11 9 8 9 10 11 11 12 12 12 13 13 14 15 16 16 17 17 18 18 19 19 20 20 20 21 21 21 21
8 7 5 4 4 5 6 7 7 7 7 7 8 8 7 7 7 7 8 9 9 9 10 10 10 9 9 9 9 9 8 8 9 10 11 12 13 14 13 11 9 8 9 10 11 12 12 13 13 14 15 15 16 16 16 16 16 16 17 18 19 19 20 20 21 21 22 23 22
8 6 4 4 4 6 7 8 7 7 6 6 7 7 7 6 6 7 8 9 10 10 10 11 11 10 10 9 9 9 9 10 11 12 13 14 15 14 12 9 8 8 9 10 12 13 13 14 14 15 15 16 16 16 15 15 15 15 16 17 18 19 21 22 23 24 25 25 24
7 6 5 5 6 7 8 8 8 7 7 7 7 7 7 7 7 8 9 10 11 11 11 12 12 11 10 9 9 10 10 11 12 13 14 15 14 12 9 7 7 8 9 10 12 13 13 14 14 15 15 15 14 14 14 14 15 16 17 18 19 21 22 24 26 27 27 27 25
7 6 6 7 7 9 10 10 10 9 9 8 8 8 8 8 9 10 11 12 12 12 12 13 12 11 10 9 10 10 11 12 13 13 14 14 12 10 8 7 8 9 10 10 11 12 13 13 14 14 14 13 13 14 14 15 16 17 18 19 21 22 24 26 28 29 28 27 25
8 8 8 8 8 10 11 11 11 11 10 10 9 8 8 8 10 12 13 13 13 13 13 13 13 12 11 10 10 11 11 12 13 13 13 12 10 9 8 9 9 10 10 11 11 11 12 12 13 13 13 13 14 14 15 16 17 18 19 21 22 23 25 28 29 29 28 26 24
9 9 9 9 9 10 11 12 12 12 11 9 8 7 7 9 11 12 13 13 13 13 14 14 13 12 11 11 11 11 12 12 12 12 12 11 10 10 10 11 11 11 11 11 11 11 12 12 13 13 14 14 15 15 16 17 18 19 20 21 22 24 27 29 29 28 26 24 22
10 10 10 10 10 11 11 12 12 12 10 9 7 7 8 10 11 12 13 13 13 14 14 14 14 13 12 12 12 12 12 12 12 12 12 12 12 12 12 12 12 11 11 11 11 12 12 13 14 14 14 15 16 16 17 18 19 20 21 22 23 26 28 29 29 27 24 22 20
10 10 10 10 10 10 11 11 11 11 9 8 7 7 9 11 12 12 13 13 14 14 14 14 14 14 13 13 13 13 13 13 13 12 12 13 13 13 13 12 11 10 10 11 11 12 12 13 14 15 15 16 16 17 18 19 20 20 21 23 25 28 29 29 27 24 22 19 17
11 11 11 10 10 10 11 11 11 10 9 8 7 8 10 11 12 12 13 13 14 14 14 14 14 14 14 14 14 14 14 13 13 12 13 13 14 14 13 11 9 8 9 10 11 11 12 13 14 15 16 16 17 18 19 20 20 22 23 25 28 29 29 28 25 22 19 17 14
11 11 11 11 11 11 11 11 11 10 9 8 8 9 10 11 12 12 13 13 14 14 14 14 14 14 15 15 15 15 15 14 13 13 13 14 14 14 13 11 9 9 9 10 11 11 12 13 14 15 16 17 18 19 20 21 22 24 26 27 29 29 28 26 24 20 17 14 12
11 11 11 11 11 12 12 12 11 10 9 8 9 10 11 11 12 13 13 14 14 14 14 14 14 15 15 16 16 16 16 15 14 13 13 13 14 13 12 11 10 10 10 11 11 12 13 14 15 16 17 18 19 20 21 23 24 26 27 28 29 29 27 25 22 18 15 12 11
12 12 12 13 13 14 14 13 11 9 8 9 10 10 11 11 12 13 13 14 14 14 14 14 15 15 16 16 17 17 17 15 14 13 13 13 13 12 12 11 11 11 12 12 13 14 14 15 16 17 18 19 20 21 23 25 26 27 28 28 28 28 26 23 20 17 14 11 10
14 14 14 14 15 16 14 12 10 8 8 10 10 11 11 11 12 13 13 13 13 13 13 14 15 16 16 17 17 18 17 16 14 13 13 13 12 11 11 11 11 12 13 13 14 14 15 16 16 17 19 20 21 23 24 26 27 27 28 28 28 27 25 22 18 15 12 11 10
15 16 16 17 17 16 13 11 9 8 10 11 11 11 11 11 12 13 13 13 13 13 14 14 15 16 17 17 18 18 17 15 14 13 13 13 12 11 11 11 12 13 14 15 15 15 16 16 17 18 19 21 22 23 25 26 26 27 28 28 28 26 24 20 17 14 12 10 10
17 18 18 18 17 14 12 9 9 10 11 12 12 12 12 12 12 13 13 13 13 14 15 15 16 17 18 19 18 17 16 15 14 14 13 13 12 11 11 12 13 15 16 16 16 16 16 17 18 19 20 21 23 23 24 25 25 26 28 28 27 25 22 19 16 14 12 10 11
19 19 19 17 15 13 10 10 11 12 12 12 12 12 12 12 13 13 14 14 15 16 16 17 18 18 19 18 16 15 14 14 14 14 14 13 12 12 12 13 14 16 16 17 17 17 18 18 19 20 21 22 23 23 24 24 25 27 27 27 26 23 21 18 16 14 12 11 12
20 19 18 15 13 11 11 11 12 13 12 12 12 12 13 13 14 14 15 16 16 17 18 18 19 19 18 16 14 13 14 14 15 15 14 13 13 12 13 14 16 17 17 17 17 18 18 19 20 21 21 22 22 23 23 24 25 27 27 26 24 21 19 17 15 14 13 13 14
19 18 16 14 12 11 12 13 12 12 12 12 12 13 14 14 15 16 16 16 18 19 20 20 20 19 16 14 13 13 14 15 15 15 15 14 13 13 14 15 16 17 17 17 17 18 18 19 20 21 21 21 22 22 23 24 26 26 26 24 21 19 17 16 15 14 13 14 16
18 16 14 13 12 12 12 12 12 11 12 12 13 14 15 16 16 16 16 17 19 21 22 21 20 18 15 13 13 14 15 15 16 16 16 15 14 14 14 15 16 17 17 17 17 17 18 19 19 20 20 21 21 22 23 24 26 26 24 21 19 17 16 16 14 13 13 15 16
16 14 13 12 11 11 11 11 11 12 12 13 14 15 16 16 16 16 17 19 21 22 22 22 20 17 14 13 14 15 16 16 17 17 16 15 14 14 15 15 16 17 18 17 18 18 19 19 20 20 20 20 21 22 24 25 26 24 22 19 17 16 16 15 14 13 13 15 16
14 12 11 10 11 11 11 11 12 13 13 14 15 16 16 16 16 17 19 21 22 22 21 20 19 16 15 14 15 16 17 18 18 17 16 15 15 15 15 16 17 18 19 19 19 20 20 20 20 20 20 21 22 23 24 25 24 22 19 17 16 16 16 15 14 13 13 14 15
13 11 9 10 10 11 11 12 13 14 15 16 16 16 16 16 17 19 20 21 21 21 20 19 18 16 16 16 17 18 18 19 18 17 16 16 16 16 16 17 18 19 19 20 20 21 21 21 21 21 21 22 23 24 25 24 22 19 17 16 16 16 15 14 13 13 13 14 15
11 9 9 10 11 11 12 13 14 15 16 16 16 16 16 17 18 20 21 21 21 20 19 18 17 17 17 17 18 18 19 19 18 18 17 17 17 17 18 18 19 20 20 20 21 21 22 21 21 21 22 22 23 24 24 22 19 17 15 15 15 15 15 14 13 13 14 14 15
10 9 10 10 11 12 13 13 14 15 16 16 16 16 17 18 20 21 21 20 20 19 19 18 18 18 18 18 19 19 19 19 18 18 18 18 18 18 18 19 20 21 21 21 21 21 21 21 21 22 22 22 23 23 22 20 17 15 14 14 15 15 14 14 13 13 14 15 15
9 10 10 11 12 13 13 14 14 15 16 16 16 17 18 19 21 21 21 20 19 19 19 19 19 19 19 19 19 20 20 19 18 18 18 18 19 19 19 20 21 22 22 21 21 21 21 21 21 21 22 22 22 21 20 18 16 15 14 14 15 14 14 14 13 14 14 15 15
10 10 11 11 12 12 13 14 14 15 16 16 17 18 19 20 21 21 20 20 20 19 19 20 20 20 19 19 19 19 19 19 18 17 17 18 19 19 19 19 20 21 21 20 20 20 20 21 21 22 22 22 21 20 18 17 15 15 14 14 14 14 14 14 13 14 14 14 15
10 10 10 11 11 12 13 14 14 15 16 17 18 19 20 20 20 20 20 20 20 20 20 20 20 20 20 19 19 19 18 18 17 16 17 17 18 18 18 18 19 20 20 19 19 20 20 21 22 22 22 21 20 18 17 16 16 15 15 14 14 14 14 14 13 14 14 14 14
10 9 10 10 12 13 13 14 14 15 16 18 19 19 19 19 19 20 20 20 20 20 20 20 19 19 19 19 18 18 17 17 16 16 16 17 17 17 17 17 18 19 19 20 20 20 21 22 22 22 22 20 18 17 17 16 16 15 15 15 15 14 14 14 13 14 14 14 14
9 10 10 12 13 14 14 14 15 16 18 19 19 18 18 18 18 19 19 20 20 20 19 19 19 19 18 18 18 18 18 17 17 17 17 17 17 17 17 17 18 19 20 21 21 21 22 22 22 22 21 19 18 17 17 17 16 16 16 15 15 14 14 14 13 14 14 14 14
10 10 12 13 13 13 14 14 16 18 19 19 18 18 18 18 18 19 19 19 19 19 19 19 19 19 19 19 19 19 19 19 18 18 18 18 18 18 18 18 19 20 21 21 22 22 22 22 22 22 21 19 17 17 17 17 17 17 17 16 16 15 14 14 13 14 14 14 14
10 11 12 13 13 13 14 16 18 19 19 19 18 19 19 20 20 20 20 19 19 19 19 19 20 20 20 20 20 20 20 19 19 18 18 19 19 19 19 19 20 20 21 22 22 22 22 22 22 21 20 18 18 17 18 18 18 18 18 17 17 16 15 14 14 14 14 14 14
Wind_Direction
232 235 240 248 257 261 260 256 254 254 253 249 244 238 234 233 236 240 244 247 247 248 250 253 257 262 269 275 282 290 297 301 302 298 293 290 292 295 296 296 297 298 299 301 303 304 305 306 307 309 311 312 312 310 306 303 299 297 296 296 297 299 302 306 312 319 324 327 327
237 244 252 260 266 265 257 249 245 241 237 233 231 230 230 233 236 239 240 239 239 241 246 250 255 261 268 275 282 290 297 302 302 299 292 286 284 287 290 295 297 299 301 304 306 308 308 309 310 313 314 315 314 312 310 308 305 303 301 300 300 302 306 314 323 330 332 332 328
243 251 260 267 269 264 253 241 234 227 222 220 221 224 227 230 234 237 236 233 232 236 241 248 254 262 269 276 283 289 296 302 304 300 293 285 281 282 286 291 294 297 299 302 305 307 308 309 310 312 313 313 312 311 310 308 305 302 301 301 301 305 310 317 322 326 326 324 321
245 252 260 266 268 261 249 237 228 220 215 214 217 221 225 228 234 239 239 235 231 233 239 248 256 263 271 278 284 290 296 302 305 301 294 286 282 281 283 285 290 293 295 298 301 304 306 307 309 310 312 313 313 313 312 309 305 301 298 298 300 304 309 313 314 314 313 310 309
245 251 257 262 260 253 241 231 219 210 208 211 215 220 224 230 239 249 253 246 239 239 244 252 259 266 273 279 285 290 297 302 304 301 295 288 284 282 283 285 288 291 293 296 299 304 308 310 312 313 314 316 318 317 312 305 301 298 297 296 299 302 304 305 304 303 302 300 299
248 253 257 257 249 238 225 215 205 200 202 209 215 221 226 234 247 261 265 259 252 253 258 263 266 269 274 280 285 290 296 300 302 300 295 290 287 286 288 290 292 293 294 295 299 305 311 314 316 317 317 318 317 308 296 289 290 293 296 297 298 298 299 299 298 298 297 296 297
250 254 254 245 231 217 207 199 194 196 201 209 216 224 231 240 254 268 273 271 269 274 281 281 276 273 274 279 284 288 294 298 300 298 294 290 289 290 293 296 299 300 299 299 301 305 307 307 307 307 305 299 292 287 285 285 288 292 294 295 295 295 296 297 298 298 298 298 298
247 250 244 231 217 206 197 191 188 193 200 210 219 227 236 247 261 274 278 278 280 291 303 303 291 279 274 276 281 286 292 297 298 297 293 290 289 291 294 299 303 305 305 307 306 302 297 293 290 287 283 279 278 280 283 286 288 290 291 292 294 295 296 297 298 300 301 301 301
242 241 233 223 213 202 193 186 186 192 201 211 222 231 242 255 269 280 284 284 287 297 307 310 302 289 279 276 279 284 290 294 294 291 288 286 287 290 294 300 304 307 310 310 305 298 291 286 283 280 279 279 281 284 286 287 289 290 290 292 294 295 296 297 299 300 302 302 302
240 236 228 218 206 194 186 186 189 195 204 215 225 236 248 262 275 284 288 289 291 296 303 308 306 297 286 278 278 281 284 285 283 282 281 281 284 288 294 300 304 308 310 306 299 293 288 285 282 280 280 281 284 288 290 290 291 291 292 293 294 295 297 298 300 301 302 302 301
241 237 227 209 189 180 182 189 196 202 209 217 228 239 251 264 275 281 285 287 289 291 296 302 304 299 289 280 276 275 274 273 273 274 276 278 283 288 294 299 305 308 306 299 293 289 287 286 285 284 285 286 287 289 290 290 290 291 292 292 294 296 299 301 303 304 304 303 301
239 233 219 193 174 172 180 191 200 207 211 216 225 235 246 258 267 273 276 278 280 283 288 295 299 297 290 281 274 269 266 267 269 271 275 280 284 288 292 297 301 301 298 292 289 288 288 288 289 290 291 291 290 288 287 287 287 288 290 292 295 298 300 303 306 307 307 305 302
231 220 201 181 172 172 179 190 200 206 209 213 221 230 240 251 261 265 267 269 272 276 282 289 295 296 291 282 274 269 268 269 272 275 280 285 287 288 287 288 290 289 287 286 286 288 290 292 293 294 294 292 288 285 283 283 285 286 289 292 296 299 302 306 309 310 310 308 303
219 205 191 182 176 176 181 189 198 204 208 213 222 232 242 251 259 261 261 263 268 273 280 288 294 296 294 287 280 276 276 278 280 284 288 291 290 285 278 277 278 279 280 282 285 288 292 295 295 294 292 288 284 281 281 281 284 287 290 294 297 301 305 309 312 313 312 309 304
206 196 190 186 183 183 186 192 199 205 209 215 227 238 246 252 257 258 258 261 266 273 281 287 292 295 296 293 289 287 287 288 290 293 296 297 294 286 276 273 273 275 276 279 283 287 291 294 294 292 288 283 279 278 279 281 283 287 291 295 299 305 310 313 315 315 313 310 304
198 192 191 190 189 189 192 197 203 208 212 219 232 243 249 252 255 256 256 261 267 275 282 287 291 294 296 296 297 297 297 298 299 301 303 304 301 294 286 279 276 274 275 277 280 283 287 289 289 287 284 281 279 278 279 281 284 288 292 297 303 309 314 316 316 315 313 309 304
194 192 192 193 193 194 198 203 208 212 217 226 239 249 251 252 253 255 259 264 271 277 283 287 290 292 294 295 299 302 303 304 305 306 306 306 304 302 298 291 283 277 275 276 278 281 283 285 285 284 281 279 278 278 279 282 286 290 295 301 308 313 316 317 317 315 313 309 304
197 193 193 194 195 199 203 209 213 218 225 239 250 253 252 252 255 258 263 268 274 279 283 286 288 290 291 293 297 302 306 306 306 306 305 303 303 304 304 301 292 282 277 277 279 281 283 283 282 280 278 276 276 277 280 283 288 293 299 305 311 315 317 317 317 315 313 310 306
198 193 193 195 197 202 207 213 218 226 238 253 256 253 252 255 259 264 267 271 275 279 282 284 285 287 289 292 296 302 305 306 304 302 300 300 301 303 305 304 298 290 283 280 282 283 282 280 276 274 273 273 274 277 281 286 291 296 302 308 312 315 317 317 317 315 313 310 309
194 191 193 196 199 204 209 215 223 237 250 257 255 253 256 261 265 268 269 271 274 277 280 281 282 283 286 290 295 300 304 304 302 299 298 298 300 302 303 303 301 296 289 285 283 281 278 275 272 270 270 272 276 280 284 289 294 300 305 309 312 315 316 317 316 315 313 312 314
190 190 194 198 202 207 213 221 236 250 257 254 252 255 260 266 268 269 268 269 271 274 276 278 279 280 283 287 293 299 302 302 300 298 298 299 300 301 302 301 298 294 288 283 279 276 273 271 271 271 273 276 280 284 288 293 298 302 305 309 312 315 316 317 316 314 312 315 321
189 193 197 202 207 213 222 236 252 258 254 249 249 254 259 263 264 264 265 267 269 272 274 276 277 278 281 287 292 297 298 298 297 299 301 302 302 301 299 297 292 286 281 277 275 274 273 273 273 275 278 281 284 288 292 296 299 302 305 308 312 314 316 316 314 312 313 319 328
191 196 200 206 213 222 235 252 260 255 244 242 245 250 254 256 256 259 262 265 269 271 273 274 275 278 282 286 291 294 294 293 294 297 302 304 303 300 295 289 282 277 275 275 274 274 274 275 277 278 281 284 287 291 294 297 300 302 305 309 312 314 315 314 312 311 314 323 330
195 199 206 213 221 233 248 260 254 242 236 239 243 246 247 248 252 257 261 265 267 269 270 272 275 279 283 287 290 290 290 290 291 295 300 304 304 299 292 283 276 272 271 273 274 274 275 276 278 280 283 286 289 292 295 297 300 303 306 310 312 314 314 313 310 311 315 323 324
199 205 212 219 230 244 255 252 239 233 235 239 241 241 242 245 252 257 260 262 264 266 270 274 278 283 286 289 289 288 286 286 288 292 297 302 303 299 290 280 273 270 271 273 274 274 274 275 278 281 284 287 290 293 296 298 300 303 307 310 312 313 313 311 310 312 316 318 314
205 211 218 227 241 252 251 238 232 234 238 240 241 241 242 247 252 255 257 259 263 268 273 278 283 288 290 290 288 286 283 283 284 289 294 299 300 297 288 278 272 270 272 273 275 275 276 277 280 283 287 290 293 295 296 298 301 304 308 310 311 312 311 310 311 313 316 313 305
210 217 225 238 250 251 241 234 235 238 240 241 241 242 244 247 250 253 257 262 270 276 280 283 288 292 293 291 287 284 281 279 281 286 292 296 296 292 284 276 272 271 273 274 275 276 278 281 285 288 291 293 295 295 296 298 302 305 308 310 311 311 310 310 312 314 314 310 302
215 224 236 249 253 246 238 236 237 240 241 242 243 243 244 247 250 255 262 271 280 283 284 287 292 295 294 290 286 281 278 277 279 284 290 292 290 285 277 271 270 271 271 273 275 278 282 286 290 293 294 295 295 295 297 299 303 306 309 310 310 310 311 312 314 315 311 305 301
221 234 247 254 250 243 238 238 239 242 243 244 244 243 244 248 253 260 270 281 285 286 286 289 294 295 292 286 282 278 275 275 279 285 289 289 284 277 270 267 266 267 269 271 275 280 286 290 293 294 295 295 295 296 298 302 305 307 309 309 310 311 312 315 317 315 309 303 302
230 245 254 253 246 241 239 240 242 243 243 243 243 244 247 252 258 267 277 284 286 286 288 291 294 293 288 281 277 274 274 275 280 284 286 284 277 270 265 263 264 265 268 272 278 284 288 292 293 294 294 294 295 298 301 304 306 308 308 309 311 312 315 318 319 315 310 307 308
241 253 255 247 241 240 241 242 243 242 241 240 243 246 250 255 263 273 280 284 285 286 288 291 293 291 285 278 274 272 273 276 279 282 282 277 270 265 262 262 264 266 270 275 282 287 291 293 293 292 292 293 296 299 303 305 307 307 308 309 312 315 317 320 320 317 314 312 312
251 256 249 239 237 239 242 243 243 241 240 240 242 246 251 259 269 277 282 284 284 285 287 289 289 287 283 278 274 272 273 275 278 279 277 272 267 263 261 262 265 268 272 278 284 289 293 293 292 291 291 293 296 300 304 306 306 306 308 310 313 316 319 322 321 319 317 316 314
255 251 239 234 236 239 241 242 242 241 241 241 244 248 256 265 274 280 283 283 282 283 284 286 285 283 280 277 274 273 274 275 277 277 274 270 265 262 261 262 265 268 273 278 284 289 293 293 292 292 292 294 298 302 305 306 305 306 308 311 314 317 320 322 322 322 320 319 316
251 241 233 234 237 240 241 241 241 242 243 245 248 254 262 272 279 282 281 280 279 280 281 283 282 281 279 277 275 275 275 276 276 275 273 269 265 261 260 260 264 267 272 277 283 288 292 293 293 292 294 296 300 304 306 306 306 307 309 312 315 317 320 322 324 324 324 322 319
239 232 233 238 241 242 243 242 241 242 244 247 253 260 269 277 281 281 279 276 276 277 279 280 280 280 278 277 276 276 276 277 277 275 272 267 263 260 258 260 263 267 272 277 283 288 292 293 294 294 295 298 302 305 307 308 308 309 310 312 315 317 320 323 325 327 327 325 321
229 231 236 241 244 243 241 239 238 239 243 249 257 267 276 281 281 279 275 273 273 275 278 279 279 279 277 276 275 276 276 277 277 275 270 265 261 258 258 260 264 269 274 279 284 289 292 294 294 295 297 299 303 307 310 312 311 311 312 313 315 317 320 324 327 328 328 326 322
227 232 237 240 239 236 233 231 233 238 245 255 266 276 281 282 279 275 272 271 273 275 278 279 278 277 276 275 274 275 275 276 275 272 268 263 260 259 259 261 265 271 277 282 286 289 291 293 295 296 298 301 305 309 313 315 315 314 314 314 315 317 321 324 327 329 329 326 322
228 230 231 231 229 226 226 229 236 246 258 270 278 282 283 280 276 272 270 271 274 277 278 278 276 275 273 273 272 273 273 273 272 270 266 263 261 261 262 264 268 273 279 283 286 288 290 292 295 297 299 302 306 310 314 316 317 316 316 316 316 319 322 325 327 328 328 326 322
222 221 222 222 223 225 229 237 249 263 274 280 283 281 279 275 272 270 271 273 275 277 276 275 273 272 271 271 271 271 271 271 271 269 267 265 264 265 265 267 270 275 280 283 285 286 288 292 296 299 301 302 305 309 313 316 318 318 318 318 318 320 322 325 327 327 327 326 323
211 214 218 223 227 233 242 253 266 276 282 282 279 274 271 269 269 270 271 273 274 274 273 272 271 270 270 270 271 271 272 272 271 270 268 266 265 265 265 267 270 274 278 281 283 284 288 293 297 300 301 302 303 306 310 313 317 319 320 320 319 320 322 324 326 326 326 326 324
208 215 223 231 238 248 259 270 278 283 284 281 274 269 267 267 268 269 271 271 271 271 270 270 270 270 270 271 272 273 274 274 272 270 267 264 262 261 262 265 268 272 275 278 281 285 289 295 298 300 301 301 301 303 306 310 315 318 320 320 320 320 321 323 325 326 326 326 326